Location: Ch�teau-Arnoux
(44.0814°N, 6.0027°E)
Time: 22:28:20
(UTC+00:00)

In-Cosmos 22 Rocket - Pass Details

Date: 15 November 2019
Orbit: 791 x 887 km, 81.2° (Epoch: 11 December)

Event Time Altitude Azimuth Distance (km) Brightness Sun altitude
Rises 04:45:28 0° 190° (S) 3,282 7.3 -18.9°
Reaches altitude 10° 04:47:48 10° 190° (S) 2,363 6.5 -18.5°
Maximum altitude 04:53:08 86° 279° (W) 816 4.0 -17.5°
Drops below altitude 10° 04:58:38 10° 10° (N) 2,431 6.6 -16.5°
Sets 05:01:05 0° 11° (N) 3,383 7.4 -16.1°
